Temp
-17 -17 -17 -18 -17 -17 -17 -17 -17 -17 -17 -17 -17 -17 -17 -17 -17 -17 -17 -17 -17 -17 -17 -16 -16 -16 -16 -16 -16 -16 -16 -16 -16 -15 -15 -15 -15 -15 -16 -16 -16 -16
-17 -17 -17 -18 -18 -18 -17 -17 -17 -17 -17 -17 -17 -17 -17 -17 -17 -17 -17 -17 -17 -17 -17 -17 -17 -17 -16 -16 -16 -16 -16 -16 -16 -16 -16 -16 -16 -16 -16 -16 -16 -16
-17 -17 -17 -18 -18 -18 -18 -17 -17 -17 -17 -17 -17 -17 -17 -17 -17 -17 -17 -17 -17 -17 -17 -17 -17 -17 -17 -17 -17 -17 -17 -16 -16 -16 -16 -16 -16 -16 -16 -16 -16 -16
-17 -17 -17 -17 -18 -18 -18 -18 -18 -17 -17 -17 -17 -17 -17 -17 -17 -18 -18 -18 -18 -18 -17 -17 -17 -17 -17 -17 -17 -17 -17 -17 -17 -17 -17 -17 -16 -16 -16 -16 -16 -16
-17 -17 -17 -17 -18 -18 -18 -18 -18 -18 -18 -17 -17 -17 -17 -17 -18 -18 -18 -18 -18 -18 -18 -18 -18 -18 -18 -17 -17 -17 -17 -17 -17 -17 -17 -17 -17 -17 -17 -17 -17 -17
-17 -17 -17 -17 -17 -18 -18 -18 -18 -18 -18 -18 -18 -18 -18 -18 -18 -18 -18 -18 -18 -18 -18 -18 -18 -18 -18 -18 -18 -18 -18 -18 -17 -17 -17 -17 -17 -17 -17 -17 -17 -17
-17 -17 -17 -18 -18 -18 -18 -18 -18 -19 -19 -18 -18 -18 -18 -18 -18 -18 -18 -18 -18 -18 -18 -18 -18 -18 -18 -18 -18 -18 -18 -18 -18 -18 -18 -18 -17 -17 -17 -17 -17 -17
-18 -17 -17 -18 -18 -18 -18 -18 -18 -18 -19 -19 -19 -19 -19 -19 -18 -18 -18 -18 -18 -19 -19 -18 -18 -18 -18 -18 -18 -18 -19 -19 -18 -18 -18 -18 -18 -18 -18 -18 -18 -18
-18 -18 -17 -18 -18 -18 -18 -18 -18 -18 -19 -19 -19 -19 -19 -19 -19 -19 -18 -18 -18 -19 -19 -19 -19 -19 -19 -19 -19 -19 -19 -19 -19 -19 -18 -18 -18 -18 -18 -18 -18 -18
-18 -18 -18 -18 -18 -18 -18 -18 -18 -18 -18 -18 -19 -19 -19 -19 -19 -19 -19 -19 -19 -19 -19 -19 -19 -19 -19 -19 -19 -19 -19 -19 -19 -19 -19 -19 -19 -18 -18 -18 -18 -18
-18 -18 -18 -17 -17 -17 -18 -18 -18 -18 -18 -18 -18 -18 -18 -19 -19 -19 -19 -19 -19 -19 -19 -19 -19 -19 -19 -19 -19 -19 -19 -19 -19 -19 -19 -19 -19 -19 -19 -19 -18 -18
-18 -18 -18 -18 -18 -18 -18 -18 -18 -18 -18 -18 -18 -18 -18 -19 -19 -19 -19 -19 -19 -19 -19 -19 -19 -19 -19 -19 -19 -19 -19 -19 -19 -19 -19 -19 -19 -19 -19 -19 -19 -19
-18 -18 -19 -19 -19 -18 -18 -18 -18 -18 -18 -18 -18 -18 -19 -19 -19 -19 -19 -19 -19 -19 -19 -19 -19 -19 -19 -19 -19 -19 -19 -19 -19 -19 -19 -19 -19 -19 -19 -19 -19 -19
-18 -19 -19 -19 -19 -18 -18 -18 -18 -18 -18 -18 -18 -18 -19 -19 -19 -19 -19 -19 -19 -19 -19 -19 -19 -19 -19 -19 -19 -19 -19 -19 -19 -19 -19 -19 -19 -19 -19 -19 -19 -19
-19 -19 -19 -19 -19 -18 -19 -18 -18 -19 -19 -18 -18 -19 -19 -19 -19 -19 -19 -19 -19 -19 -19 -19 -19 -19 -19 -19 -19 -19 -19 -19 -19 -19 -19 -19 -19 -19 -19 -19 -19 -19
-19 -19 -19 -19 -19 -19 -19 -19 -19 -19 -19 -19 -19 -19 -19 -19 -19 -19 -19 -19 -19 -19 -19 -19 -19 -19 -19 -19 -19 -19 -19 -19 -19 -20 -20 -19 -19 -19 -19 -19 -19 -19
-19 -19 -19 -19 -19 -19 -19 -19 -19 -19 -20 -19 -19 -19 -19 -19 -19 -19 -19 -19 -19 -19 -19 -19 -19 -19 -19 -20 -20 -20 -19 -19 -20 -20 -20 -20 -20 -20 -20 -19 -19 -19
-19 -19 -19 -20 -20 -19 -20 -20 -20 -20 -20 -20 -20 -20 -20 -20 -20 -19 -19 -19 -19 -19 -20 -20 -20 -20 -20 -20 -20 -20 -19 -19 -20 -20 -21 -20 -20 -20 -20 -20 -20 -20
-19 -19 -19 -20 -20 -20 -20 -20 -20 -20 -20 -20 -20 -20 -20 -20 -20 -20 -20 -20 -20 -20 -20 -20 -20 -20 -20 -20 -20 -20 -20 -20 -20 -21 -21 -21 -21 -21 -20 -20 -20 -20
-19 -19 -19 -20 -20 -20 -20 -20 -20 -20 -20 -20 -20 -20 -20 -20 -20 -20 -20 -20 -20 -20 -20 -20 -20 -20 -20 -20 -20 -21 -21 -21 -21 -21 -21 -21 -21 -21 -20 -20 -20 -20
-19 -19 -19 -20 -20 -20 -20 -20 -20 -20 -20 -20 -20 -20 -20 -20 -20 -20 -20 -20 -20 -20 -21 -21 -21 -21 -21 -21 -21 -21 -21 -21 -21 -21 -21 -21 -21 -21 -20 -20 -20 -20
-20 -20 -20 -20 -20 -20 -20 -20 -20 -20 -20 -20 -20 -20 -20 -20 -20 -20 -20 -20 -20 -21 -21 -21 -21 -21 -21 -21 -21 -21 -21 -21 -21 -21 -21 -21 -21 -21 -21 -20 -20 -20
-20 -20 -20 -20 -20 -20 -20 -20 -20 -20 -20 -20 -20 -20 -20 -20 -20 -20 -20 -21 -21 -21 -21 -21 -21 -21 -21 -21 -21 -22 -21 -21 -21 -21 -21 -21 -21 -21 -21 -21 -21 -21
-20 -20 -20 -21 -21 -21 -21 -21 -21 -21 -21 -21 -21 -20 -20 -20 -20 -20 -21 -21 -21 -21 -21 -21 -21 -22 -22 -22 -22 -22 -22 -22 -22 -22 -22 -21 -21 -21 -21 -21 -21 -21
-20 -20 -20 -21 -21 -21 -21 -21 -21 -21 -21 -21 -21 -21 -21 -21 -21 -21 -21 -22 -22 -22 -22 -22 -22 -22 -22 -22 -22 -22 -22 -22 -22 -22 -22 -22 -22 -21 -21 -21 -21 -21
-21 -21 -21 -21 -21 -21 -21 -21 -21 -21 -21 -21 -21 -21 -21 -21 -21 -21 -22 -22 -22 -22 -22 -22 -22 -22 -22 -22 -22 -22 -22 -22 -22 -22 -22 -22 -22 -22 -22 -22 -22 -22
Height
5747 5748 5748 5747 5747 5746 5746 5745 5746 5747 5747 5747 5746 5746 5746 5747 5747 5747 5748 5748 5748 5748 5748 5748 5748 5748 5748 5748 5748 5748 5748 5748 5748 5748 5748 5748 5748 5748 5747 5747 5747 5747
5745 5746 5746 5746 5745 5745 5744 5744 5744 5745 5746 5745 5745 5745 5745 5745 5745 5746 5746 5746 5746 5746 5746 5746 5746 5746 5746 5746 5746 5747 5747 5747 5747 5747 5747 5747 5747 5746 5746 5746 5746 5746
5743 5743 5743 5744 5743 5743 5743 5742 5742 5743 5744 5744 5744 5744 5743 5743 5744 5744 5745 5745 5745 5745 5745 5745 5745 5745 5745 5745 5745 5745 5745 5745 5745 5745 5745 5745 5745 5745 5745 5745 5745 5744
5740 5740 5740 5741 5741 5741 5741 5740 5740 5740 5741 5742 5742 5742 5742 5742 5742 5743 5743 5743 5743 5743 5743 5743 5743 5743 5744 5744 5743 5743 5743 5743 5743 5743 5744 5744 5744 5744 5744 5743 5743 5743
5736 5737 5737 5739 5739 5740 5739 5739 5738 5738 5739 5740 5740 5740 5740 5740 5740 5741 5741 5741 5741 5741 5741 5741 5741 5741 5742 5742 5742 5742 5742 5742 5742 5742 5742 5742 5742 5742 5742 5742 5742 5742
5733 5734 5735 5736 5737 5738 5738 5737 5737 5737 5737 5738 5738 5738 5738 5738 5738 5738 5738 5738 5738 5738 5738 5738 5739 5739 5739 5740 5740 5741 5741 5741 5741 5741 5741 5741 5740 5740 5740 5740 5740 5740
5731 5732 5733 5734 5735 5735 5735 5735 5735 5735 5736 5736 5736 5736 5736 5736 5736 5736 5736 5736 5736 5736 5736 5736 5736 5736 5737 5737 5738 5739 5739 5739 5740 5740 5740 5739 5739 5739 5738 5738 5738 5738
5727 5728 5729 5729 5730 5731 5732 5733 5733 5734 5734 5734 5734 5733 5733 5734 5734 5734 5735 5735 5735 5735 5735 5735 5735 5735 5735 5735 5735 5736 5737 5737 5738 5738 5738 5738 5737 5737 5737 5737 5737 5737
5723 5724 5724 5725 5726 5727 5727 5729 5730 5731 5731 5732 5732 5731 5731 5731 5731 5732 5732 5733 5733 5733 5733 5733 5734 5734 5734 5734 5734 5734 5735 5735 5736 5736 5736 5736 5736 5736 5736 5735 5735 5735
5719 5720 5721 5721 5722 5723 5723 5725 5726 5727 5728 5728 5729 5729 5729 5729 5729 5729 5729 5730 5730 5730 5730 5731 5731 5731 5731 5731 5732 5733 5733 5733 5733 5734 5734 5734 5734 5734 5734 5734 5734 5733
5715 5716 5717 5718 5719 5720 5720 5720 5721 5722 5723 5724 5725 5726 5726 5727 5727 5726 5726 5726 5727 5727 5727 5727 5727 5728 5728 5728 5728 5729 5730 5731 5731 5731 5731 5731 5731 5731 5731 5731 5731 5731
5710 5712 5713 5714 5715 5716 5716 5716 5717 5719 5719 5720 5721 5722 5722 5723 5723 5723 5723 5723 5723 5724 5724 5724 5724 5724 5725 5726 5725 5725 5726 5726 5727 5727 5727 5728 5728 5729 5729 5728 5728 5728
5706 5708 5709 5710 5711 5712 5713 5713 5714 5716 5716 5716 5717 5718 5718 5718 5718 5718 5718 5718 5720 5721 5721 5721 5721 5721 5722 5723 5723 5723 5722 5722 5723 5723 5724 5724 5725 5725 5726 5726 5725 5725
5703 5704 5705 5706 5707 5708 5709 5710 5711 5712 5712 5713 5714 5713 5713 5712 5712 5712 5712 5714 5715 5716 5717 5717 5717 5717 5717 5717 5718 5719 5719 5719 5719 5720 5720 5720 5720 5721 5722 5722 5722 5722
5701 5701 5702 5703 5704 5704 5705 5705 5706 5706 5706 5707 5708 5707 5706 5706 5707 5707 5708 5709 5710 5711 5712 5712 5711 5711 5711 5712 5713 5714 5715 5715 5715 5716 5716 5716 5716 5717 5718 5718 5718 5718
5696 5697 5698 5699 5699 5699 5700 5699 5699 5700 5701 5702 5702 5701 5701 5701 5702 5703 5704 5704 5705 5705 5706 5706 5705 5705 5705 5706 5707 5708 5709 5710 5710 5710 5711 5711 5711 5712 5713 5713 5713 5713
5692 5692 5693 5694 5693 5693 5694 5694 5694 5695 5696 5697 5698 5697 5697 5697 5698 5699 5700 5700 5700 5701 5701 5700 5700 5700 5700 5701 5701 5702 5703 5703 5704 5704 5705 5706 5706 5707 5707 5707 5707 5707
5687 5687 5687 5688 5688 5689 5689 5689 5689 5690 5691 5692 5693 5693 5692 5693 5693 5694 5695 5695 5695 5696 5696 5696 5696 5696 5696 5697 5697 5697 5697 5697 5698 5699 5699 5700 5700 5701 5701 5701 5701 5701
5683 5683 5683 5683 5683 5684 5684 5684 5685 5685 5685 5686 5687 5687 5687 5687 5688 5688 5689 5690 5690 5690 5691 5691 5692 5692 5692 5692 5692 5692 5691 5692 5692 5693 5693 5694 5694 5695 5695 5695 5695 5696
5678 5677 5677 5677 5677 5678 5678 5679 5679 5679 5679 5680 5680 5680 5681 5682 5682 5683 5684 5685 5685 5685 5685 5685 5686 5686 5686 5686 5686 5686 5686 5686 5686 5687 5687 5688 5688 5689 5690 5689 5689 5689
5672 5672 5673 5673 5673 5673 5673 5673 5673 5674 5674 5674 5674 5675 5676 5677 5678 5678 5679 5680 5680 5680 5679 5679 5680 5680 5680 5681 5680 5680 5680 5680 5680 5680 5681 5681 5682 5683 5683 5683 5682 5682
5667 5667 5668 5668 5668 5668 5668 5668 5668 5668 5668 5669 5669 5670 5670 5671 5671 5672 5672 5673 5673 5674 5674 5673 5673 5673 5673 5674 5674 5674 5674 5673 5673 5673 5673 5674 5674 5675 5675 5675 5676 5675
5662 5662 5663 5663 5663 5663 5663 5663 5663 5663 5663 5663 5664 5664 5664 5664 5664 5664 5664 5665 5665 5666 5666 5666 5666 5666 5666 5666 5666 5666 5667 5667 5667 5667 5667 5667 5667 5667 5667 5667 5667 5667
5656 5656 5656 5657 5657 5657 5657 5657 5657 5657 5658 5658 5658 5658 5658 5658 5658 5658 5658 5658 5658 5658 5658 5659 5659 5659 5659 5659 5659 5659 5659 5659 5659 5660 5660 5660 5660 5660 5660 5660 5659 5659
5649 5650 5650 5650 5650 5650 5650 5650 5651 5651 5651 5651 5651 5651 5652 5652 5652 5651 5651 5651 5651 5651 5652 5652 5652 5652 5652 5652 5652 5652 5652 5652 5652 5652 5652 5652 5652 5652 5652 5652 5651 5651
5641 5642 5643 5643 5643 5643 5643 5644 5644 5644 5644 5644 5643 5644 5645 5645 5645 5645 5644 5644 5644 5645 5645 5645 5645 5645 5645 5645 5645 5645 5645 5645 5645 5645 5645 5645 5645 5645 5644 5644 5643 5643
Wind_Speed
16 15 16 18 16 14 13 13 12 13 14 13 11 7 6 7 8 8 9 9 9 9 9 8 8 8 7 7 7 8 8 9 9 10 11 12 13 13 13 13 12 12
16 17 18 18 16 15 14 15 14 13 13 13 11 8 6 7 7 8 9 9 9 9 8 8 8 8 8 8 8 8 8 9 9 10 11 12 12 13 13 13 12 11
16 18 19 17 15 15 15 15 15 14 13 12 12 10 9 8 8 8 9 10 10 10 10 10 10 10 10 9 9 9 9 9 10 10 11 12 12 13 13 13 13 12
17 19 20 19 18 16 16 16 17 15 14 13 13 12 11 10 9 9 10 10 11 11 12 12 12 12 12 12 12 11 11 11 11 11 11 12 13 14 14 13 13 12
19 18 19 19 18 17 18 19 19 18 17 15 14 13 12 11 9 9 10 11 12 13 13 14 13 13 13 14 14 14 13 12 12 12 12 12 13 14 15 15 14 14
18 18 18 18 18 18 19 19 19 18 18 17 15 14 13 12 11 10 10 11 13 14 14 14 13 12 12 13 14 15 15 15 14 13 12 12 13 14 15 16 16 15
18 19 20 21 20 20 19 19 20 19 18 17 17 16 15 14 14 13 12 12 13 14 15 14 13 12 12 12 13 14 16 17 16 15 14 14 14 14 15 15 16 16
24 23 24 24 22 21 21 21 21 21 20 18 18 17 17 18 18 16 15 14 14 14 14 14 14 14 14 14 14 15 16 17 17 17 16 16 16 16 16 16 16 16
29 26 26 26 25 24 24 23 22 22 21 19 19 18 18 20 20 20 18 17 16 16 16 16 16 17 17 18 17 17 17 17 18 18 19 19 19 19 18 18 17 17
29 26 26 26 26 26 25 24 22 22 22 21 20 20 21 21 22 22 21 20 20 20 21 21 21 21 21 21 21 20 20 19 19 20 21 21 21 21 22 21 20 20
28 27 26 26 26 26 27 26 25 24 25 25 24 24 25 25 24 24 24 23 23 24 25 26 26 25 24 24 26 26 25 24 23 23 23 23 24 24 24 24 24 23
27 27 27 27 25 26 28 30 29 27 25 26 27 27 27 27 27 27 27 27 27 27 28 29 29 28 27 28 30 31 32 32 31 28 26 25 25 25 25 26 27 26
27 28 29 28 26 25 26 27 27 26 25 26 27 28 28 28 27 27 28 28 29 29 29 30 31 32 32 32 32 31 31 30 28 26 25 24 25 26 26 28 29 29
27 25 25 27 27 26 26 27 28 29 29 29 27 27 28 28 27 26 26 27 29 30 30 31 33 35 35 34 33 31 28 27 26 26 26 25 25 24 25 28 30 30
29 27 26 27 30 29 26 25 27 29 31 31 28 25 26 27 29 29 30 31 32 32 33 34 36 37 38 37 35 34 32 32 31 30 29 29 28 27 27 28 30 32
34 34 31 28 31 33 30 29 29 29 30 31 31 29 30 31 32 33 35 36 36 37 37 38 39 39 40 39 38 37 36 35 34 33 32 33 33 33 33 32 32 33
35 35 33 33 35 36 36 37 37 35 35 35 37 38 39 38 38 38 39 40 40 38 37 37 39 40 41 41 40 39 39 38 37 36 36 36 36 36 37 37 37 37
36 36 35 37 39 39 40 41 40 40 40 40 41 43 44 43 43 42 42 42 41 41 39 40 41 43 44 45 44 43 43 42 40 39 38 38 38 38 39 39 39 38
38 39 38 39 39 39 40 41 41 41 42 43 44 45 45 45 44 44 44 44 44 45 45 46 46 46 47 48 48 46 46 45 43 41 41 41 41 41 41 41 41 40
40 40 40 39 38 37 38 39 40 41 43 44 45 46 45 45 45 45 44 44 45 47 48 49 49 49 49 49 48 46 44 44 45 44 44 45 45 44 44 46 46 44
39 39 39 39 38 38 39 40 41 42 44 46 46 47 47 47 47 48 47 46 45 46 47 47 48 48 47 48 48 48 47 47 48 48 49 49 49 48 47 48 48 47
42 40 40 40 40 41 42 43 44 45 47 48 49 50 51 52 52 51 50 49 48 46 46 46 46 46 46 47 47 48 49 50 51 51 51 51 51 50 50 50 50 50
45 44 43 43 44 45 46 47 49 49 50 51 52 53 54 54 54 53 53 52 50 49 48 47 46 47 47 47 47 47 48 49 49 50 50 50 50 50 50 50 50 51
48 48 49 49 50 50 51 51 52 52 52 53 53 54 54 54 54 53 53 52 52 51 50 49 48 48 48 48 48 47 47 48 48 49 49 50 50 50 50 50 49 50
53 53 53 53 53 53 53 53 52 53 53 54 55 55 55 54 53 53 53 53 53 52 52 52 51 51 50 50 49 49 49 50 50 50 51 51 51 52 52 51 51 51
56 55 54 53 52 52 52 52 52 53 54 55 56 56 56 55 53 53 53 54 54 54 54 54 53 53 53 52 52 52 52 51 51 50 50 50 50 50 51 51 51 51
Wind_Direction
276 276 288 299 304 301 289 282 277 274 272 268 263 267 282 294 300 302 300 295 287 280 275 273 271 270 269 267 265 265 266 269 270 269 267 265 262 260 258 257 256 256
282 282 286 292 299 300 290 283 279 275 273 270 263 260 268 281 290 296 299 296 288 279 270 265 262 260 262 265 267 268 268 270 270 270 270 268 265 262 259 257 254 252
285 280 276 275 280 286 284 279 277 274 271 269 267 264 263 269 280 292 300 299 293 287 282 277 272 266 262 260 260 262 265 268 269 269 270 271 271 269 266 262 260 257
284 273 267 266 266 272 280 279 275 272 268 267 269 270 269 272 280 291 298 296 291 288 289 288 284 280 275 270 265 261 260 261 264 267 269 271 272 273 273 272 271 269
280 267 264 268 265 268 278 280 275 271 271 271 271 272 274 274 276 284 288 286 281 280 282 284 284 284 284 282 279 274 269 264 262 263 265 267 270 270 270 272 274 275
274 262 264 271 271 271 275 275 270 269 273 276 275 276 277 275 274 276 276 274 272 272 274 275 276 280 283 285 286 285 282 277 270 265 263 262 263 264 265 266 268 270
279 274 273 278 277 270 267 265 264 266 269 273 276 276 278 279 277 275 272 269 269 272 274 273 273 277 279 280 282 285 285 283 280 277 273 267 262 260 260 261 263 265
285 281 278 281 279 269 263 259 259 262 262 264 268 273 277 279 278 276 275 273 272 271 274 280 284 286 286 284 281 281 281 280 279 279 277 273 268 263 260 260 260 262
282 280 276 278 278 274 270 263 260 260 258 256 259 265 272 277 278 279 278 276 274 272 272 279 287 292 294 291 285 282 279 275 274 274 274 272 268 265 262 258 256 256
281 280 276 276 277 275 271 268 265 263 262 258 256 259 264 270 274 277 278 279 279 278 277 280 285 290 291 287 284 284 280 273 269 269 270 270 268 267 264 260 255 254
284 282 277 275 275 272 268 267 264 262 264 263 260 261 263 265 268 270 272 274 276 279 281 282 284 287 288 286 287 287 283 276 273 271 269 266 265 266 267 265 262 259
285 280 274 271 271 270 268 267 262 257 258 262 263 264 263 264 268 269 267 267 269 274 276 278 280 281 281 282 284 286 285 280 276 276 274 267 263 264 264 265 265 264
279 275 270 268 269 268 266 264 257 252 255 262 266 266 264 265 269 269 267 266 268 271 271 270 273 276 276 277 278 283 286 281 277 278 277 273 270 269 265 263 263 264
276 271 267 265 265 265 268 267 259 255 258 263 265 267 266 267 269 267 267 270 271 271 270 270 272 274 274 274 276 279 280 277 279 284 282 279 279 277 271 266 263 263
273 268 267 266 262 259 260 261 258 257 258 257 256 258 263 269 272 271 270 273 272 271 272 274 275 275 275 275 276 277 275 274 278 282 282 283 284 283 281 276 270 267
271 266 264 263 259 254 248 248 254 260 261 256 252 257 266 271 274 273 273 274 273 272 274 275 276 277 277 278 278 279 278 278 280 281 281 282 283 284 285 283 279 274
272 269 263 258 260 260 257 256 261 266 267 262 260 265 271 272 272 273 274 274 274 274 273 274 275 276 278 281 282 281 280 280 282 283 283 283 284 284 284 284 283 280
269 268 266 264 266 266 264 263 265 267 268 268 268 271 273 273 273 274 274 274 274 274 275 275 276 276 277 279 280 279 279 279 281 283 283 283 283 283 284 284 283 281
266 266 267 270 270 267 263 263 265 267 269 271 271 272 273 274 275 276 276 275 274 274 274 275 275 275 276 277 277 278 278 279 279 280 280 280 280 280 281 281 279 278
265 265 267 269 270 269 266 265 267 269 271 272 273 273 274 275 276 277 276 276 274 273 273 273 273 273 273 274 275 276 276 276 277 277 278 277 277 278 278 278 278 277
267 266 266 266 267 268 268 268 269 271 272 273 273 273 274 275 276 276 274 273 272 272 271 272 272 271 271 270 271 271 272 273 274 276 276 276 276 277 276 276 277 276
268 265 264 264 264 266 267 266 267 270 272 273 273 273 274 275 275 275 274 272 271 270 270 271 271 271 270 270 270 270 271 272 273 275 276 276 276 276 276 275 274 274
265 264 262 262 263 264 265 265 265 268 271 272 273 274 273 274 274 275 274 274 274 273 272 271 271 271 272 271 271 272 272 272 273 274 275 275 276 276 276 275 275 274
262 262 263 264 264 264 264 264 264 267 271 273 275 274 273 272 272 273 274 274 274 274 274 273 272 272 272 272 273 273 273 273 274 274 274 275 275 275 275 275 275 274
261 262 263 265 266 265 264 263 264 268 273 276 276 275 273 271 271 271 272 272 273 273 273 273 272 272 272 272 272 273 273 274 274 275 275 275 275 275 276 275 275 274
258 259 261 264 265 264 262 261 265 271 275 277 277 276 273 270 269 269 269 270 270 271 271 271 271 272 272 272 272 273 273 274 274 275 275 275 275 275 275 275 274 274